"datetime","temp","dp","rain_mm","uv","mb"
"2019-03-30 00:00:00",3.1,1.9,0.0,0.0,1022.7
"2019-03-30 00:01:00",3.1,1.9,0.0,0.0,1022.7
"2019-03-30 00:02:00",3.0,1.8,0.0,0.0,1022.7
"2019-03-30 00:03:00",2.9,1.7,0.0,0.0,1022.7
"2019-03-30 00:04:00",2.9,1.7,0.0,0.0,1022.7
"2019-03-30 00:05:00",2.9,1.7,0.0,0.0,1022.7
"2019-03-30 00:06:00",2.9,1.7,0.0,0.0,1022.7
"2019-03-30 00:07:00",2.8,1.6,0.0,0.0,1022.7
"2019-03-30 00:08:00",2.9,1.7,0.0,0.0,1022.7
"2019-03-30 00:09:00",2.9,1.9,0.0,0.0,1022.7
"2019-03-30 00:10:00",2.9,1.9,0.0,0.0,1022.7
"2019-03-30 00:11:00",2.9,1.9,0.0,0.0,1022.7
"2019-03-30 00:12:00",2.9,1.9,0.0,0.0,1022.6
"2019-03-30 00:13:00",2.9,1.9,0.0,0.0,1022.6
"2019-03-30 00:14:00",2.9,1.9,0.0,0.0,1022.6
"2019-03-30 00:15:00",2.9,1.9,0.0,0.0,1022.6
"2019-03-30 00:16:00",2.9,1.9,0.0,0.0,1022.5
"2019-03-30 00:17:00",2.9,1.7,0.0,0.0,1022.5
"2019-03-30 00:18:00",2.8,1.6,0.0,0.0,1022.6
"2019-03-30 00:19:00",2.8,1.6,0.0,0.0,1022.6
"2019-03-30 00:20:00",2.8,1.6,0.0,0.0,1022.5
"2019-03-30 00:21:00",2.8,1.6,0.0,0.0,1022.6
"2019-03-30 00:22:00",2.8,1.6,0.0,0.0,1022.6
"2019-03-30 00:23:00",2.8,1.6,0.0,0.0,1022.5
"2019-03-30 00:24:00",2.7,1.5,0.0,0.0,1022.5
"2019-03-30 00:25:00",2.7,1.5,0.0,0.0,1022.5
"2019-03-30 00:26:00",2.7,1.5,0.0,0.0,1022.5
"2019-03-30 00:27:00",2.7,1.5,0.0,0.0,1022.5
"2019-03-30 00:28:00",2.7,1.7,0.0,0.0,1022.5
"2019-03-30 00:29:00",2.7,1.7,0.0,0.0,1022.5
"2019-03-30 00:30:00",2.7,1.7,0.0,0.0,1022.4
"2019-03-30 00:31:00",2.7,1.7,0.0,0.0,1022.5
"2019-03-30 00:32:00",2.7,1.7,0.0,0.0,1022.5
"2019-03-30 00:33:00",2.8,1.8,0.0,0.0,1022.5
"2019-03-30 00:34:00",2.8,1.8,0.0,0.0,1022.5
"2019-03-30 00:35:00",2.8,1.8,0.0,0.0,1022.4
"2019-03-30 00:36:00",2.8,1.8,0.0,0.0,1022.5
"2019-03-30 00:37:00",2.8,1.8,0.0,0.0,1022.4
"2019-03-30 00:38:00",2.8,1.8,0.0,0.0,1022.4
"2019-03-30 00:39:00",2.8,1.8,0.0,0.0,1022.5
"2019-03-30 00:40:00",2.8,1.8,0.0,0.0,1022.5
"2019-03-30 00:41:00",2.8,1.6,0.0,0.0,1022.4
"2019-03-30 00:42:00",2.7,1.7,0.0,0.0,1022.5
"2019-03-30 00:43:00",2.7,1.7,0.0,0.0,1022.4
"2019-03-30 00:44:00",2.7,1.7,0.0,0.0,1022.4
"2019-03-30 00:45:00",2.7,1.7,0.0,0.0,1022.4
"2019-03-30 00:46:00",2.7,1.7,0.0,0.0,1022.4
"2019-03-30 00:47:00",2.7,1.7,0.0,0.0,1022.4
"2019-03-30 00:48:00",2.7,1.7,0.0,0.0,1022.4
"2019-03-30 00:49:00",2.7,1.7,0.0,0.0,1022.4
"2019-03-30 00:50:00",2.7,1.7,0.0,0.0,1022.4
"2019-03-30 00:51:00",2.7,1.7,0.0,0.0,1022.4
"2019-03-30 00:52:00",2.6,1.6,0.0,0.0,1022.4
"2019-03-30 00:53:00",2.6,1.6,0.0,0.0,1022.4
"2019-03-30 00:54:00",2.6,1.6,0.0,0.0,1022.4
"2019-03-30 00:55:00",2.6,1.6,0.0,0.0,1022.4
"2019-03-30 00:56:00",2.6,1.6,0.0,0.0,1022.4
"2019-03-30 00:57:00",2.6,1.6,0.0,0.0,1022.4
"2019-03-30 00:58:00",2.6,1.6,0.0,0.0,1022.4
"2019-03-30 00:59:00",2.6,1.6,0.0,0.0,1022.4
"2019-03-30 01:00:00",2.6,1.6,0.0,0.0,1022.3
"2019-03-30 01:01:00",2.6,1.6,0.0,0.0,1022.3
"2019-03-30 01:02:00",2.7,1.7,0.0,0.0,1022.3
"2019-03-30 01:03:00",2.6,1.6,0.0,0.0,1022.3
"2019-03-30 01:04:00",2.6,1.6,0.0,0.0,1022.3
"2019-03-30 01:05:00",2.5,1.5,0.0,0.0,1022.3
"2019-03-30 01:06:00",2.5,1.5,0.0,0.0,1022.2
"2019-03-30 01:07:00",2.4,1.4,0.0,0.0,1022.3
"2019-03-30 01:08:00",2.4,1.4,0.0,0.0,1022.3
"2019-03-30 01:09:00",2.5,1.5,0.0,0.0,1022.2
"2019-03-30 01:10:00",2.5,1.6,0.0,0.0,1022.2
"2019-03-30 01:11:00",2.6,1.6,0.0,0.0,1022.2
"2019-03-30 01:12:00",2.6,1.6,0.0,0.0,1022.2
"2019-03-30 01:13:00",2.5,1.5,0.0,0.0,1022.1
"2019-03-30 01:14:00",2.4,1.4,0.0,0.0,1022.2
"2019-03-30 01:15:00",2.4,1.4,0.0,0.0,1022.1
"2019-03-30 01:16:00",2.4,1.4,0.0,0.0,1022.1
"2019-03-30 01:17:00",2.4,1.4,0.0,0.0,1022.1
"2019-03-30 01:18:00",2.5,1.6,0.0,0.0,1022.1
"2019-03-30 01:19:00",2.5,1.6,0.0,0.0,1022.1
"2019-03-30 01:20:00",2.5,1.6,0.0,0.0,1022.1
"2019-03-30 01:21:00",2.5,1.5,0.0,0.0,1022.1
"2019-03-30 01:22:00",2.5,1.6,0.0,0.0,1022.1
"2019-03-30 01:23:00",2.4,1.4,0.0,0.0,1022.1
"2019-03-30 01:24:00",2.4,1.4,0.0,0.0,1022.1
"2019-03-30 01:25:00",2.4,1.4,0.0,0.0,1022.1
"2019-03-30 01:26:00",2.4,1.4,0.0,0.0,1022.1
"2019-03-30 01:27:00",2.4,1.4,0.0,0.0,1022.1
"2019-03-30 01:28:00",2.4,1.4,0.0,0.0,1022.1
"2019-03-30 01:29:00",2.3,1.3,0.0,0.0,1022.1
"2019-03-30 01:30:00",2.3,1.3,0.0,0.0,1022.1
"2019-03-30 01:31:00",2.3,1.3,0.0,0.0,1022.0
"2019-03-30 01:32:00",2.3,1.3,0.0,0.0,1022.0
"2019-03-30 01:33:00",2.3,1.3,0.0,0.0,1022.0
"2019-03-30 01:34:00",2.3,1.4,0.0,0.0,1022.0
"2019-03-30 01:35:00",2.3,1.4,0.0,0.0,1022.0
"2019-03-30 01:36:00",2.3,1.3,0.0,0.0,1022.0
"2019-03-30 01:37:00",2.3,1.3,0.0,0.0,1021.9
"2019-03-30 01:38:00",2.3,1.4,0.0,0.0,1021.9
"2019-03-30 01:39:00",2.2,1.2,0.0,0.0,1021.9
"2019-03-30 01:40:00",2.2,1.2,0.0,0.0,1021.9
"2019-03-30 01:41:00",2.3,1.4,0.0,0.0,1021.9
"2019-03-30 01:42:00",2.3,1.4,0.0,0.0,1021.9
"2019-03-30 01:43:00",2.3,1.4,0.0,0.0,1021.9
"2019-03-30 01:44:00",2.3,1.4,0.0,0.0,1021.9
"2019-03-30 01:45:00",2.3,1.4,0.0,0.0,1021.9
"2019-03-30 01:46:00",2.3,1.3,0.0,0.0,1021.9
"2019-03-30 01:47:00",2.2,1.2,0.0,0.0,1021.9
"2019-03-30 01:48:00",2.2,1.2,0.0,0.0,1021.9
"2019-03-30 01:49:00",2.1,1.1,0.0,0.0,1021.9
"2019-03-30 01:50:00",2.1,1.1,0.0,0.0,1021.8
"2019-03-30 01:51:00",2.1,1.1,0.0,0.0,1021.8
"2019-03-30 01:52:00",2.1,1.1,0.0,0.0,1021.8
"2019-03-30 01:53:00",2.1,1.1,0.0,0.0,1021.8
"2019-03-30 01:54:00",2.1,1.1,0.0,0.0,1021.8
"2019-03-30 01:55:00",2.1,1.1,0.0,0.0,1021.8
"2019-03-30 01:56:00",2.1,1.1,0.0,0.0,1021.8
"2019-03-30 01:57:00",2.1,1.1,0.0,0.0,1021.8
"2019-03-30 01:58:00",2.1,1.2,0.0,0.0,1021.8
"2019-03-30 01:59:00",2.1,1.2,0.0,0.0,1021.8
"2019-03-30 02:00:00",2.1,1.2,0.0,0.0,1021.7
"2019-03-30 02:01:00",2.1,1.2,0.0,0.0,1021.7
"2019-03-30 02:02:00",2.1,1.2,0.0,0.0,1021.7
"2019-03-30 02:03:00",2.1,1.1,0.0,0.0,1021.8
"2019-03-30 02:04:00",2.1,1.1,0.0,0.0,1021.7
"2019-03-30 02:05:00",2.1,1.2,0.0,0.0,1021.7
"2019-03-30 02:06:00",2.1,1.2,0.0,0.0,1021.7
"2019-03-30 02:07:00",2.1,1.2,0.0,0.0,1021.7
"2019-03-30 02:08:00",2.1,1.1,0.0,0.0,1021.7
"2019-03-30 02:09:00",2.1,1.1,0.0,0.0,1021.7
"2019-03-30 02:10:00",2.0,1.0,0.0,0.0,1021.6
"2019-03-30 02:11:00",1.9,0.9,0.0,0.0,1021.7
"2019-03-30 02:12:00",1.9,0.9,0.0,0.0,1021.6
"2019-03-30 02:13:00",1.9,1.0,0.0,0.0,1021.7
"2019-03-30 02:14:00",2.0,1.1,0.0,0.0,1021.6
"2019-03-30 02:15:00",2.0,1.1,0.0,0.0,1021.6
"2019-03-30 02:16:00",2.0,1.1,0.0,0.0,1021.6
"2019-03-30 02:17:00",1.9,1.0,0.0,0.0,1021.6
"2019-03-30 02:18:00",1.9,0.9,0.0,0.0,1021.7
"2019-03-30 02:19:00",1.9,1.0,0.0,0.0,1021.7
"2019-03-30 02:20:00",1.9,1.0,0.0,0.0,1021.7
"2019-03-30 02:21:00",2.0,1.1,0.0,0.0,1021.6
"2019-03-30 02:22:00",2.1,1.2,0.0,0.0,1021.7
"2019-03-30 02:23:00",2.1,1.2,0.0,0.0,1021.6
"2019-03-30 02:24:00",2.1,1.2,0.0,0.0,1021.6
"2019-03-30 02:25:00",2.1,1.2,0.0,0.0,1021.6
"2019-03-30 02:26:00",2.1,1.2,0.0,0.0,1021.6
"2019-03-30 02:27:00",1.9,0.9,0.0,0.0,1021.5
"2019-03-30 02:28:00",1.9,0.9,0.0,0.0,1021.5
"2019-03-30 02:29:00",1.9,1.0,0.0,0.0,1021.5
"2019-03-30 02:30:00",1.9,1.0,0.0,0.0,1021.5
"2019-03-30 02:31:00",1.9,1.0,0.0,0.0,1021.5
"2019-03-30 02:32:00",1.9,1.0,0.0,0.0,1021.5
"2019-03-30 02:33:00",1.9,1.0,0.0,0.0,1021.5
"2019-03-30 02:34:00",1.9,1.0,0.0,0.0,1021.5
"2019-03-30 02:35:00",1.9,1.0,0.0,0.0,1021.4
"2019-03-30 02:36:00",1.9,1.0,0.0,0.0,1021.5
"2019-03-30 02:37:00",1.9,1.0,0.0,0.0,1021.4
"2019-03-30 02:38:00",1.9,1.0,0.0,0.0,1021.4
"2019-03-30 02:39:00",1.9,1.0,0.0,0.0,1021.4
"2019-03-30 02:40:00",1.8,0.8,0.0,0.0,1021.4
"2019-03-30 02:41:00",1.8,0.8,0.0,0.0,1021.4
"2019-03-30 02:42:00",1.8,0.8,0.0,0.0,1021.4
"2019-03-30 02:43:00",1.8,0.9,0.0,0.0,1021.4
"2019-03-30 02:44:00",1.8,0.9,0.0,0.0,1021.4
"2019-03-30 02:45:00",1.8,0.9,0.0,0.0,1021.4
"2019-03-30 02:46:00",1.8,0.9,0.0,0.0,1021.4
"2019-03-30 02:47:00",1.8,0.8,0.0,0.0,1021.5
"2019-03-30 02:48:00",1.8,0.9,0.0,0.0,1021.4
"2019-03-30 02:49:00",1.8,0.9,0.0,0.0,1021.4
"2019-03-30 02:50:00",1.8,0.9,0.0,0.0,1021.4
"2019-03-30 02:51:00",1.7,0.8,0.0,0.0,1021.4
"2019-03-30 02:52:00",1.7,0.8,0.0,0.0,1021.4
"2019-03-30 02:53:00",1.7,0.8,0.0,0.0,1021.4
"2019-03-30 02:54:00",1.8,0.9,0.0,0.0,1021.4
"2019-03-30 02:55:00",1.8,0.9,0.0,0.0,1021.3
"2019-03-30 02:56:00",1.8,0.9,0.0,0.0,1021.3
"2019-03-30 02:57:00",1.9,1.0,0.0,0.0,1021.3
"2019-03-30 02:58:00",1.9,1.0,0.0,0.0,1021.3
"2019-03-30 02:59:00",1.8,0.9,0.0,0.0,1021.3
"2019-03-30 03:00:00",1.8,0.9,0.0,0.0,1021.3
"2019-03-30 03:01:00",1.7,0.7,0.0,0.0,1021.2
"2019-03-30 03:02:00",1.7,0.7,0.0,0.0,1021.3
"2019-03-30 03:03:00",1.7,0.8,0.0,0.0,1021.3
"2019-03-30 03:04:00",1.7,0.8,0.0,0.0,1021.2
"2019-03-30 03:05:00",1.7,0.8,0.0,0.0,1021.3
"2019-03-30 03:06:00",1.7,0.8,0.0,0.0,1021.2
"2019-03-30 03:07:00",1.8,0.9,0.0,0.0,1021.3
"2019-03-30 03:08:00",1.7,0.8,0.0,0.0,1021.2
"2019-03-30 03:09:00",1.7,0.8,0.0,0.0,1021.3
"2019-03-30 03:10:00",1.7,0.8,0.0,0.0,1021.2
"2019-03-30 03:11:00",1.7,0.8,0.0,0.0,1021.2
"2019-03-30 03:12:00",1.7,0.8,0.0,0.0,1021.2
"2019-03-30 03:13:00",1.8,0.9,0.0,0.0,1021.2
"2019-03-30 03:14:00",1.7,0.8,0.0,0.0,1021.2
"2019-03-30 03:15:00",1.7,0.8,0.0,0.0,1021.2
"2019-03-30 03:16:00",1.7,0.8,0.0,0.0,1021.1
"2019-03-30 03:17:00",1.7,0.8,0.0,0.0,1021.2
"2019-03-30 03:18:00",1.6,0.7,0.0,0.0,1021.1
"2019-03-30 03:19:00",1.7,0.8,0.0,0.0,1021.2
"2019-03-30 03:20:00",1.7,0.8,0.0,0.0,1021.2
"2019-03-30 03:21:00",1.7,0.8,0.0,0.0,1021.1
"2019-03-30 03:22:00",1.7,0.8,0.0,0.0,1021.2
"2019-03-30 03:23:00",1.7,0.8,0.0,0.0,1021.1
"2019-03-30 03:24:00",1.7,0.8,0.0,0.0,1021.2
"2019-03-30 03:25:00",1.7,0.8,0.0,0.0,1021.1
"2019-03-30 03:26:00",1.7,0.8,0.0,0.0,1021.1
"2019-03-30 03:27:00",1.7,0.8,0.0,0.0,1021.1
"2019-03-30 03:28:00",1.7,0.8,0.0,0.0,1021.1
"2019-03-30 03:29:00",1.7,0.8,0.0,0.0,1021.1
"2019-03-30 03:30:00",1.6,0.7,0.0,0.0,1021.2
"2019-03-30 03:31:00",1.6,0.7,0.0,0.0,1021.2
"2019-03-30 03:32:00",1.6,0.7,0.0,0.0,1021.2
"2019-03-30 03:33:00",1.6,0.7,0.0,0.0,1021.2
"2019-03-30 03:34:00",1.6,0.7,0.0,0.0,1021.1
"2019-03-30 03:35:00",1.6,0.7,0.0,0.0,1021.2
"2019-03-30 03:36:00",1.6,0.7,0.0,0.0,1021.1
"2019-03-30 03:37:00",1.6,0.7,0.0,0.0,1021.2
"2019-03-30 03:38:00",1.6,0.7,0.0,0.0,1021.2
"2019-03-30 03:39:00",1.6,0.7,0.0,0.0,1021.1
"2019-03-30 03:40:00",1.7,0.8,0.0,0.0,1021.1
"2019-03-30 03:41:00",1.8,0.9,0.0,0.0,1021.2
"2019-03-30 03:42:00",1.8,0.9,0.0,0.0,1021.2
"2019-03-30 03:43:00",1.8,0.9,0.0,0.0,1021.1
"2019-03-30 03:44:00",1.8,0.9,0.0,0.0,1021.1
"2019-03-30 03:45:00",1.8,0.9,0.0,0.0,1021.1
"2019-03-30 03:46:00",1.9,1.0,0.0,0.0,1021.1
"2019-03-30 03:47:00",1.8,0.9,0.0,0.0,1021.1
"2019-03-30 03:48:00",1.8,0.9,0.0,0.0,1021.1
"2019-03-30 03:49:00",1.8,0.9,0.0,0.0,1021.1
"2019-03-30 03:50:00",1.8,0.9,0.0,0.0,1021.0
"2019-03-30 03:51:00",1.8,0.9,0.0,0.0,1021.0
"2019-03-30 03:52:00",1.8,0.9,0.0,0.0,1021.0
"2019-03-30 03:53:00",1.8,0.9,0.0,0.0,1021.0
"2019-03-30 03:54:00",1.8,0.9,0.0,0.0,1021.0
"2019-03-30 03:55:00",1.8,0.9,0.0,0.0,1021.0
"2019-03-30 03:56:00",1.8,0.9,0.0,0.0,1021.0
"2019-03-30 03:57:00",1.9,1.0,0.0,0.0,1021.0
"2019-03-30 03:58:00",1.9,1.0,0.0,0.0,1021.0
"2019-03-30 03:59:00",1.9,1.0,0.0,0.0,1021.0
"2019-03-30 04:00:00",1.9,1.0,0.0,0.0,1021.0
"2019-03-30 04:01:00",1.9,1.0,0.0,0.0,1021.0
"2019-03-30 04:02:00",1.9,1.0,0.0,0.0,1021.0
"2019-03-30 04:03:00",1.8,0.9,0.0,0.0,1021.0
"2019-03-30 04:04:00",1.8,0.9,0.0,0.0,1020.9
"2019-03-30 04:05:00",1.7,0.8,0.0,0.0,1020.9
"2019-03-30 04:06:00",1.7,0.8,0.0,0.0,1020.9
"2019-03-30 04:07:00",1.7,0.8,0.0,0.0,1021.0
"2019-03-30 04:08:00",1.8,0.9,0.0,0.0,1020.9
"2019-03-30 04:09:00",1.8,0.9,0.0,0.0,1020.9
"2019-03-30 04:10:00",1.8,0.9,0.0,0.0,1020.9
"2019-03-30 04:11:00",1.8,0.9,0.0,0.0,1021.0
"2019-03-30 04:12:00",1.7,0.8,0.0,0.0,1020.9
"2019-03-30 04:13:00",1.7,0.8,0.0,0.0,1020.9
"2019-03-30 04:14:00",1.7,0.8,0.0,0.0,1020.9
"2019-03-30 04:15:00",1.7,0.8,0.0,0.0,1020.9
"2019-03-30 04:16:00",1.7,0.8,0.0,0.0,1020.9
"2019-03-30 04:17:00",1.8,0.9,0.0,0.0,1020.9
"2019-03-30 04:18:00",1.8,0.9,0.0,0.0,1020.9
"2019-03-30 04:19:00",1.8,0.9,0.0,0.0,1020.9
"2019-03-30 04:20:00",1.8,0.9,0.0,0.0,1020.9
"2019-03-30 04:21:00",1.8,0.9,0.0,0.0,1020.9
"2019-03-30 04:22:00",1.8,0.9,0.0,0.0,1020.8
"2019-03-30 04:23:00",1.8,0.9,0.0,0.0,1020.8
"2019-03-30 04:24:00",1.8,0.9,0.0,0.0,1020.8
"2019-03-30 04:25:00",1.9,1.0,0.0,0.0,1020.8
"2019-03-30 04:26:00",1.9,1.2,0.0,0.0,1020.8
"2019-03-30 04:27:00",1.9,1.0,0.0,0.0,1020.8
"2019-03-30 04:28:00",1.9,1.0,0.0,0.0,1020.8
"2019-03-30 04:29:00",1.8,0.9,0.0,0.0,1020.8
"2019-03-30 04:30:00",1.9,1.0,0.0,0.0,1020.8
"2019-03-30 04:31:00",1.9,1.0,0.0,0.0,1020.8
"2019-03-30 04:32:00",1.9,1.0,0.0,0.0,1020.8
"2019-03-30 04:33:00",1.9,1.0,0.0,0.0,1020.8
"2019-03-30 04:34:00",1.9,1.0,0.0,0.0,1020.8
"2019-03-30 04:35:00",1.9,1.0,0.0,0.0,1020.7
"2019-03-30 04:36:00",1.9,1.0,0.0,0.0,1020.8
"2019-03-30 04:37:00",1.8,0.9,0.0,0.0,1020.8
"2019-03-30 04:38:00",1.8,0.9,0.0,0.0,1020.8
"2019-03-30 04:39:00",1.8,0.9,0.0,0.0,1020.8
"2019-03-30 04:40:00",1.8,0.9,0.0,0.0,1020.7
"2019-03-30 04:41:00",1.9,1.2,0.0,0.0,1020.8
"2019-03-30 04:42:00",2.0,1.3,0.0,0.0,1020.8
"2019-03-30 04:43:00",2.0,1.1,0.0,0.0,1020.8
"2019-03-30 04:44:00",1.9,1.0,0.0,0.0,1020.7
"2019-03-30 04:45:00",1.8,0.9,0.0,0.0,1020.7
"2019-03-30 04:46:00",1.8,0.9,0.0,0.0,1020.7
"2019-03-30 04:47:00",1.8,0.9,0.0,0.0,1020.7
"2019-03-30 04:48:00",1.8,0.9,0.0,0.0,1020.8
"2019-03-30 04:49:00",1.8,0.9,0.0,0.0,1020.7
"2019-03-30 04:50:00",1.9,1.0,0.0,0.0,1020.7
"2019-03-30 04:51:00",1.9,1.0,0.0,0.0,1020.7
"2019-03-30 04:52:00",1.9,1.0,0.0,0.0,1020.7
"2019-03-30 04:53:00",1.9,1.0,0.0,0.0,1020.7
"2019-03-30 04:54:00",1.8,0.9,0.0,0.0,1020.7
"2019-03-30 04:55:00",1.8,0.9,0.0,0.0,1020.7
"2019-03-30 04:56:00",1.8,0.9,0.0,0.0,1020.7
"2019-03-30 04:57:00",1.8,0.9,0.0,0.0,1020.7
"2019-03-30 04:58:00",1.8,0.9,0.0,0.0,1020.6
"2019-03-30 04:59:00",1.9,1.2,0.0,0.0,1020.7
"2019-03-30 05:00:00",1.9,1.2,0.0,0.0,1020.6
"2019-03-30 05:01:00",1.9,1.0,0.0,0.0,1020.6
"2019-03-30 05:02:00",1.9,1.0,0.0,0.0,1020.7
"2019-03-30 05:03:00",1.8,0.9,0.0,0.0,1020.7
"2019-03-30 05:04:00",1.8,0.9,0.0,0.0,1020.7
"2019-03-30 05:05:00",1.8,0.9,0.0,0.0,1020.7
"2019-03-30 05:06:00",1.7,0.8,0.0,0.0,1020.7
"2019-03-30 05:07:00",1.7,0.8,0.0,0.0,1020.7
"2019-03-30 05:08:00",1.7,0.8,0.0,0.0,1020.7
"2019-03-30 05:09:00",1.8,0.9,0.0,0.0,1020.7
"2019-03-30 05:10:00",1.8,0.9,0.0,0.0,1020.7
"2019-03-30 05:11:00",1.8,1.1,0.0,0.0,1020.7
"2019-03-30 05:12:00",1.8,0.9,0.0,0.0,1020.7
"2019-03-30 05:13:00",1.9,1.2,0.0,0.0,1020.6
"2019-03-30 05:14:00",1.8,0.9,0.0,0.0,1020.7
"2019-03-30 05:15:00",1.8,0.9,0.0,0.0,1020.7
"2019-03-30 05:16:00",1.7,0.7,0.0,0.0,1020.6
"2019-03-30 05:17:00",1.6,0.7,0.0,0.0,1020.6
"2019-03-30 05:18:00",1.6,0.7,0.0,0.0,1020.6
"2019-03-30 05:19:00",1.4,0.5,0.0,0.0,1020.6
"2019-03-30 05:20:00",1.5,0.6,0.0,0.0,1020.6
"2019-03-30 05:21:00",1.5,0.6,0.0,0.0,1020.6
"2019-03-30 05:22:00",1.5,0.6,0.0,0.0,1020.6
"2019-03-30 05:23:00",1.5,0.6,0.0,0.0,1020.6
"2019-03-30 05:24:00",1.5,0.6,0.0,0.0,1020.6
"2019-03-30 05:25:00",1.4,0.5,0.0,0.0,1020.6
"2019-03-30 05:26:00",1.4,0.5,0.0,0.0,1020.6
"2019-03-30 05:27:00",1.4,0.5,0.0,0.0,1020.6
"2019-03-30 05:28:00",1.3,0.4,0.0,0.0,1020.6
"2019-03-30 05:29:00",1.3,0.4,0.0,0.0,1020.6
"2019-03-30 05:30:00",1.3,0.4,0.0,0.0,1020.6
"2019-03-30 05:31:00",1.3,0.4,0.0,0.0,1020.6
"2019-03-30 05:32:00",1.3,0.4,0.0,0.0,1020.6
"2019-03-30 05:33:00",1.4,0.5,0.0,0.0,1020.6
"2019-03-30 05:34:00",1.4,0.5,0.0,0.0,1020.6
"2019-03-30 05:35:00",1.4,0.5,0.0,0.0,1020.6
"2019-03-30 05:36:00",1.4,0.5,0.0,0.0,1020.6
"2019-03-30 05:37:00",1.4,0.5,0.0,0.0,1020.6
"2019-03-30 05:38:00",1.4,0.5,0.0,0.0,1020.6
"2019-03-30 05:39:00",1.3,0.4,0.0,0.0,1020.6
"2019-03-30 05:40:00",1.3,0.4,0.0,0.0,1020.6
"2019-03-30 05:41:00",1.3,0.4,0.0,0.0,1020.6
"2019-03-30 05:42:00",1.3,0.4,0.0,0.0,1020.6
"2019-03-30 05:43:00",1.2,0.3,0.0,0.0,1020.6
"2019-03-30 05:44:00",1.3,0.4,0.0,0.0,1020.6
"2019-03-30 05:45:00",1.3,0.6,0.0,0.0,1020.6
"2019-03-30 05:46:00",1.3,0.6,0.0,0.0,1020.5
"2019-03-30 05:47:00",1.3,0.6,0.0,0.0,1020.5
"2019-03-30 05:48:00",1.3,0.6,0.0,0.0,1020.5
"2019-03-30 05:49:00",1.3,0.4,0.0,0.0,1020.5
"2019-03-30 05:50:00",1.2,0.3,0.0,0.0,1020.5
"2019-03-30 05:51:00",1.2,0.3,0.0,0.0,1020.5
"2019-03-30 05:52:00",1.3,0.4,0.0,0.0,1020.5
"2019-03-30 05:53:00",1.3,0.6,0.0,0.0,1020.5
"2019-03-30 05:54:00",1.3,0.6,0.0,0.0,1020.5
"2019-03-30 05:55:00",1.3,0.6,0.0,0.0,1020.5
"2019-03-30 05:56:00",1.3,0.6,0.0,0.0,1020.4
"2019-03-30 05:57:00",1.3,0.4,0.0,0.0,1020.4
"2019-03-30 05:58:00",1.3,0.4,0.0,0.0,1020.4
"2019-03-30 05:59:00",1.3,0.4,0.0,0.0,1020.4
"2019-03-30 06:00:00",1.3,0.4,0.0,0.0,1020.4
"2019-03-30 06:01:00",1.2,0.3,0.0,0.0,1020.3
"2019-03-30 06:02:00",1.2,0.3,0.0,0.0,1020.3
"2019-03-30 06:03:00",1.2,0.3,0.0,0.0,1020.3
"2019-03-30 06:04:00",1.3,0.4,0.0,0.0,1020.3
"2019-03-30 06:05:00",1.3,0.6,0.0,0.0,1020.4
"2019-03-30 06:06:00",1.3,0.6,0.0,0.0,1020.3
"2019-03-30 06:07:00",1.3,0.6,0.0,0.0,1020.3
"2019-03-30 06:08:00",1.3,0.6,0.0,0.0,1020.3
"2019-03-30 06:09:00",1.3,0.6,0.0,0.0,1020.3
"2019-03-30 06:10:00",1.3,0.6,0.0,0.0,1020.3
"2019-03-30 06:11:00",1.3,0.6,0.0,0.0,1020.4
"2019-03-30 06:12:00",1.4,0.7,0.0,0.0,1020.4
"2019-03-30 06:13:00",1.4,0.7,0.0,0.0,1020.4
"2019-03-30 06:14:00",1.4,0.7,0.0,0.0,1020.4
"2019-03-30 06:15:00",1.5,0.8,0.0,0.0,1020.4
"2019-03-30 06:16:00",1.6,0.9,0.0,0.0,1020.4
"2019-03-30 06:17:00",1.6,0.9,0.0,0.0,1020.4
"2019-03-30 06:18:00",1.7,1.0,0.0,0.0,1020.4
"2019-03-30 06:19:00",1.8,1.1,0.0,0.0,1020.4
"2019-03-30 06:20:00",1.8,1.1,0.0,0.0,1020.5
"2019-03-30 06:21:00",1.8,1.1,0.0,0.0,1020.5
"2019-03-30 06:22:00",1.9,1.2,0.0,0.0,1020.5
"2019-03-30 06:23:00",1.9,1.2,0.0,0.0,1020.4
"2019-03-30 06:24:00",2.0,1.3,0.0,0.0,1020.5
"2019-03-30 06:25:00",2.0,1.3,0.0,0.0,1020.5
"2019-03-30 06:26:00",2.1,1.4,0.0,0.0,1020.4
"2019-03-30 06:27:00",2.1,1.4,0.0,0.0,1020.5
"2019-03-30 06:28:00",2.1,1.4,0.0,0.0,1020.4
"2019-03-30 06:29:00",2.1,1.4,0.0,0.0,1020.5
"2019-03-30 06:30:00",2.1,1.4,0.0,0.0,1020.4
"2019-03-30 06:31:00",2.1,1.4,0.0,0.0,1020.4
"2019-03-30 06:32:00",2.1,1.2,0.0,0.0,1020.4
"2019-03-30 06:33:00",2.1,1.2,0.0,0.0,1020.5
"2019-03-30 06:34:00",2.1,1.2,0.0,0.0,1020.5
"2019-03-30 06:35:00",2.1,1.2,0.0,0.0,1020.4
"2019-03-30 06:36:00",2.1,1.2,0.0,0.0,1020.4
"2019-03-30 06:37:00",2.1,1.2,0.0,0.0,1020.4
"2019-03-30 06:38:00",2.1,1.2,0.0,0.0,1020.4
"2019-03-30 06:39:00",2.2,1.3,0.0,0.0,1020.4
"2019-03-30 06:40:00",2.1,1.4,0.0,0.0,1020.5
"2019-03-30 06:41:00",2.2,1.3,0.0,0.0,1020.4
"2019-03-30 06:42:00",2.2,1.5,0.0,0.0,1020.4
"2019-03-30 06:43:00",2.2,1.5,0.0,0.0,1020.4
"2019-03-30 06:44:00",2.2,1.5,0.0,0.0,1020.4
"2019-03-30 06:45:00",2.2,1.5,0.0,0.0,1020.5
"2019-03-30 06:46:00",2.2,1.5,0.0,0.0,1020.5
"2019-03-30 06:47:00",2.2,1.5,0.0,0.0,1020.4
"2019-03-30 06:48:00",2.2,1.5,0.0,0.0,1020.4
"2019-03-30 06:49:00",2.3,1.6,0.0,0.0,1020.4
"2019-03-30 06:50:00",2.3,1.6,0.0,0.0,1020.3
"2019-03-30 06:51:00",2.3,1.6,0.0,0.0,1020.3
"2019-03-30 06:52:00",2.4,1.7,0.0,0.0,1020.4
"2019-03-30 06:53:00",2.5,1.8,0.0,0.0,1020.3
"2019-03-30 06:54:00",2.6,1.9,0.0,0.0,1020.4
"2019-03-30 06:55:00",2.6,1.9,0.0,0.0,1020.3
"2019-03-30 06:56:00",2.6,1.7,0.0,0.0,1020.4
"2019-03-30 06:57:00",2.6,1.7,0.0,0.0,1020.4
"2019-03-30 06:58:00",2.6,1.7,0.0,0.0,1020.4
"2019-03-30 06:59:00",2.6,1.7,0.0,0.0,1020.3
"2019-03-30 07:00:00",2.6,1.7,0.0,0.0,1020.3
"2019-03-30 07:01:00",2.7,1.8,0.0,0.0,1020.3
"2019-03-30 07:02:00",2.7,1.8,0.0,0.0,1020.3
"2019-03-30 07:03:00",2.7,1.8,0.0,0.0,1020.3
"2019-03-30 07:04:00",2.8,2.1,0.0,0.0,1020.3
"2019-03-30 07:05:00",2.8,2.1,0.0,0.0,1020.3
"2019-03-30 07:06:00",2.9,2.2,0.0,0.0,1020.3
"2019-03-30 07:07:00",3.0,2.1,0.0,0.0,1020.3
"2019-03-30 07:08:00",3.0,2.1,0.0,0.0,1020.3
"2019-03-30 07:09:00",3.1,2.2,0.0,0.0,1020.3
"2019-03-30 07:10:00",3.1,2.2,0.0,0.0,1020.3
"2019-03-30 07:11:00",3.2,2.3,0.0,0.0,1020.3
"2019-03-30 07:12:00",3.2,2.3,0.0,0.0,1020.3
"2019-03-30 07:13:00",3.3,2.4,0.0,0.0,1020.3
"2019-03-30 07:14:00",3.3,2.4,0.0,0.0,1020.3
"2019-03-30 07:15:00",3.4,2.5,0.0,0.0,1020.3
"2019-03-30 07:16:00",3.4,2.5,0.0,0.0,1020.3
"2019-03-30 07:17:00",3.5,2.6,0.0,0.0,1020.3
"2019-03-30 07:18:00",3.6,2.7,0.0,0.0,1020.3
"2019-03-30 07:19:00",3.7,2.8,0.0,0.0,1020.3
"2019-03-30 07:20:00",3.7,2.8,0.0,0.0,1020.4
"2019-03-30 07:21:00",3.8,2.9,0.0,0.0,1020.4
"2019-03-30 07:22:00",3.9,3.0,0.0,0.0,1020.3
"2019-03-30 07:23:00",3.9,3.0,0.0,0.0,1020.3
"2019-03-30 07:24:00",4.1,3.1,0.0,0.0,1020.3
"2019-03-30 07:25:00",4.1,3.1,0.0,0.0,1020.3
"2019-03-30 07:26:00",4.1,3.1,0.0,0.0,1020.3
"2019-03-30 07:27:00",4.2,3.2,0.0,0.0,1020.3
"2019-03-30 07:28:00",4.2,3.2,0.0,0.0,1020.3
"2019-03-30 07:29:00",4.3,3.3,0.0,0.0,1020.4
"2019-03-30 07:30:00",4.3,3.3,0.0,0.0,1020.3
"2019-03-30 07:31:00",4.3,3.3,0.0,0.0,1020.4
"2019-03-30 07:32:00",4.4,3.4,0.0,0.0,1020.4
"2019-03-30 07:33:00",4.4,3.4,0.0,0.0,1020.4
"2019-03-30 07:34:00",4.5,3.5,0.0,0.0,1020.4
"2019-03-30 07:35:00",4.6,3.6,0.0,0.0,1020.3
"2019-03-30 07:36:00",4.6,3.6,0.0,0.0,1020.4
"2019-03-30 07:37:00",4.7,3.7,0.0,0.0,1020.4
"2019-03-30 07:38:00",4.7,3.7,0.0,0.0,1020.3
"2019-03-30 07:39:00",4.8,3.6,0.0,0.0,1020.4
"2019-03-30 07:40:00",4.9,3.7,0.0,0.0,1020.3
"2019-03-30 07:41:00",5.0,3.8,0.0,0.0,1020.4
"2019-03-30 07:42:00",5.1,3.9,0.0,0.0,1020.4
"2019-03-30 07:43:00",5.2,4.2,0.0,0.0,1020.4
"2019-03-30 07:44:00",5.3,4.3,0.0,0.0,1020.4
"2019-03-30 07:45:00",5.4,4.4,0.0,0.0,1020.4
"2019-03-30 07:46:00",5.6,4.6,0.0,0.0,1020.4
"2019-03-30 07:47:00",5.6,4.4,0.0,0.0,1020.3
"2019-03-30 07:48:00",5.7,4.7,0.0,0.5,1020.3
"2019-03-30 07:49:00",5.9,4.9,0.0,0.5,1020.4
"2019-03-30 07:50:00",5.9,4.7,0.0,0.5,1020.3
"2019-03-30 07:51:00",6.1,4.9,0.0,0.5,1020.4
"2019-03-30 07:52:00",6.1,4.9,0.0,0.5,1020.3
"2019-03-30 07:53:00",6.1,4.7,0.0,0.5,1020.3
"2019-03-30 07:54:00",6.2,4.8,0.0,0.5,1020.4
"2019-03-30 07:55:00",6.2,4.8,0.0,0.5,1020.3
"2019-03-30 07:56:00",6.3,4.9,0.0,0.5,1020.4
"2019-03-30 07:57:00",6.4,5.0,0.0,0.5,1020.4
"2019-03-30 07:58:00",6.5,5.0,0.0,0.5,1020.4
"2019-03-30 07:59:00",6.6,5.2,0.0,0.5,1020.4
"2019-03-30 08:00:00",6.7,5.2,0.0,0.5,1020.3
"2019-03-30 08:01:00",6.9,5.5,0.0,0.5,1020.4
"2019-03-30 08:02:00",7.0,5.6,0.0,0.5,1020.4
"2019-03-30 08:03:00",7.2,5.7,0.0,0.6,1020.4
"2019-03-30 08:04:00",7.4,5.9,0.0,0.6,1020.4
"2019-03-30 08:05:00",7.6,5.7,0.0,0.6,1020.4
"2019-03-30 08:06:00",7.8,5.8,0.0,0.6,1020.4
"2019-03-30 08:07:00",8.0,5.8,0.0,0.6,1020.5
"2019-03-30 08:08:00",8.2,5.8,0.0,0.6,1020.4
"2019-03-30 08:09:00",8.3,5.9,0.0,0.6,1020.4
"2019-03-30 08:10:00",8.3,6.1,0.0,0.6,1020.4
"2019-03-30 08:11:00",8.4,6.2,0.0,0.6,1020.4
"2019-03-30 08:12:00",8.4,6.4,0.0,0.6,1020.4
"2019-03-30 08:13:00",8.4,6.4,0.0,0.6,1020.4
"2019-03-30 08:14:00",8.5,6.6,0.0,0.7,1020.4
"2019-03-30 08:15:00",8.6,6.6,0.0,0.7,1020.4
"2019-03-30 08:16:00",8.7,6.8,0.0,0.7,1020.4
"2019-03-30 08:17:00",8.7,6.8,0.0,0.7,1020.4
"2019-03-30 08:18:00",8.8,6.8,0.0,0.7,1020.4
"2019-03-30 08:19:00",8.9,6.5,0.0,0.7,1020.4
"2019-03-30 08:20:00",9.1,6.5,0.0,0.8,1020.4
"2019-03-30 08:21:00",9.3,6.4,0.0,0.8,1020.5
"2019-03-30 08:22:00",9.3,6.6,0.0,0.8,1020.4
"2019-03-30 08:23:00",9.4,6.5,0.0,0.8,1020.4
"2019-03-30 08:24:00",9.5,6.6,0.0,0.8,1020.4
"2019-03-30 08:25:00",9.7,6.4,0.0,0.8,1020.4
"2019-03-30 08:26:00",9.9,6.4,0.0,0.8,1020.4
"2019-03-30 08:27:00",10.1,6.6,0.0,0.9,1020.4
"2019-03-30 08:28:00",10.1,6.8,0.0,0.9,1020.4
"2019-03-30 08:29:00",10.1,7.2,0.0,0.9,1020.4
"2019-03-30 08:30:00",10.2,7.3,0.0,0.9,1020.4
"2019-03-30 08:31:00",10.3,7.4,0.0,0.9,1020.4
"2019-03-30 08:32:00",10.4,6.9,0.0,0.9,1020.4
"2019-03-30 08:33:00",10.6,7.1,0.0,0.9,1020.3
"2019-03-30 08:34:00",10.7,7.2,0.0,1.0,1020.3
"2019-03-30 08:35:00",10.8,6.9,0.0,1.0,1020.4
"2019-03-30 08:36:00",10.8,6.9,0.0,1.0,1020.4
"2019-03-30 08:37:00",10.8,6.9,0.0,1.0,1020.4
"2019-03-30 08:38:00",11.0,6.9,0.0,1.0,1020.3
"2019-03-30 08:39:00",11.1,7.0,0.0,1.0,1020.3
"2019-03-30 08:40:00",11.2,7.1,0.0,1.1,1020.3
"2019-03-30 08:41:00",11.3,7.0,0.0,1.1,1020.3
"2019-03-30 08:42:00",11.4,7.3,0.0,1.1,1020.3
"2019-03-30 08:43:00",11.4,7.3,0.0,1.1,1020.3
"2019-03-30 08:44:00",11.6,7.3,0.0,1.1,1020.3
"2019-03-30 08:45:00",11.6,7.1,0.0,1.1,1020.3
"2019-03-30 08:46:00",11.7,7.2,0.0,1.1,1020.3
"2019-03-30 08:47:00",11.8,7.3,0.0,1.2,1020.3
"2019-03-30 08:48:00",11.8,7.1,0.0,1.2,1020.3
"2019-03-30 08:49:00",11.9,7.2,0.0,1.2,1020.3
"2019-03-30 08:50:00",11.9,7.4,0.0,1.2,1020.3